{"data":{"norad_id":59159,"intl_designator":"2024-044H","name":"STARLINK-31182","alt_names":[],"object_type":"PAYLOAD","status":"ACTIVE","operator":null,"country":"US","launch_date":"2024-03-04","launch_site_code":"AFETR","launch_vehicle":null,"mission":null,"orbit_class":"UNKNOWN","rcs_meters":null,"size_class":null,"mass_kg":null,"dimensions":null,"purposes":["comms"],"wikipedia_slug":null,"has_3d_model":false,"image_url":null,"decayed_at":null,"tle_current":{"epoch":"2026-05-24T18:14:10.411872Z","epoch_age_seconds":95908,"freshness":"FRESH","line1":"1 59159U 24044H   26144.75984273  .00000063  00000+0  11796-4 0  9991","line2":"2 59159  43.0039  37.0710 0001023 257.4197 102.6540 15.27577661125237","mean_motion":15.27577661,"eccentricity":0.0001023,"inclination_deg":43.0039,"raan_deg":37.071,"arg_perigee_deg":257.4197,"mean_anomaly_deg":102.654,"bstar":1.1796e-5,"rev_number":12523,"period_min":94.266893053236,"perigee_km":482.35419980193,"apogee_km":483.75799991016,"semimajor_km":6861.193099856,"source":"CELESTRAK","updated_at":"2026-05-25T13:38:18.833809Z"}}}